[[{"header":{"parameterUnit":"m.s-1","parameterCategory":1,"la1":30.2991,"la2":30.254,"lo1":-89.0895,"lo2":-89.0444,"dy":0.0017,"dx":0.0017,"nx":28,"ny":28,"refTime":"2024-12-31T03:00:00:Z","depth":0,"parameterNumber":2,"parameterNumberName":"U-component_of_WINDS"},"data":[0,0,0,0,0,0,0,0,0,0,0,0,0,0,0,0,0,0,0,0,0,0,0,0,0,0,0,0,0,0,0,0,0,0,0,0,0,0,0,0,0,0,0,0,0,0,0,0,0,0,0,0,0,0,0,0,0,0,2.2143,2.2144,0,2.222,2.2221,2.2222,2.2198,2.2196,2.2194,2.2193,2.2277,2.228,2.2284,0,0,0,0,0,0,0,0,0,0,0,0,0,2.1979,2.1982,2.2143,2.2144,2.2145,2.222,2.2221,2.2222,2.2198,2.2196,2.2194,2.2192,2.2275,2.228,2.2284,0,0,0,0,0,0,0,0,0,0,0,0,0,2.2053,2.1983,2.2142,2.2142,2.2142,2.222,2.2221,2.2222,2.2199,2.2196,2.2194,2.2191,2.2274,2.2279,2.2285,2.2369,0,0,2.2302,2.2305,0,0,0,0,0,0,0,0,2.2049,2.2059,2.2141,2.2142,2.2143,2.2197,2.2194,2.2272,2.2199,2.2177,2.2193,2.219,2.2252,2.226,2.228,2.2373,2.2377,2.2303,2.2306,2.2309,2.231,0,0,0,0,0,0,0,2.2043,2.2055,2.2173,2.2142,2.2143,2.2139,2.2147,2.2209,2.2228,2.2179,2.2177,2.2187,2.2252,2.2274,2.2281,2.2378,2.2303,2.2308,2.2311,2.2313,2.2547,2.255,0,0,0,0,0,0,2.2037,2.2051,2.2171,2.2176,2.2088,2.2144,2.2153,2.2182,2.2227,2.2232,2.2189,2.2185,2.2266,2.2275,2.2284,2.2388,2.2309,2.2314,2.2317,2.2545,2.2548,2.2551,0,0,0,0,0,0,2.2034,2.2048,2.2168,2.2113,2.2128,2.2149,2.2183,2.2185,2.2207,2.2234,2.2238,2.2207,2.2264,2.2276,2.2349,2.239,2.2316,2.2322,2.2541,2.2546,2.255,2.2594,0,0,0,0,0,0,2.2029,2.2047,2.2078,2.2114,2.2131,2.2229,2.2185,2.2188,2.2216,2.2212,2.2253,2.2257,2.2263,2.234,2.2354,2.2397,2.2326,2.2538,2.2543,2.2548,2.2589,2.2599,2.2608,0,0,0,0,0,2.2023,2.2088,2.208,2.2094,2.217,2.2232,2.2242,2.2246,2.2219,2.2252,2.227,2.2256,2.2383,2.2348,2.2363,2.2408,2.2535,2.2542,2.2548,2.2585,2.2597,2.2608,0,0,0,0,0,0,2.2057,2.2092,2.2084,2.2161,2.2194,2.2227,2.2268,2.2259,2.2301,2.2296,2.2301,2.231,2.2385,2.2403,2.2364,2.2493,2.2455,2.2465,2.2478,2.249,2.25,2.2494,2.2331,0,0,0,0,0,2.2074,2.2119,2.2148,2.2214,2.2231,2.2247,2.2274,2.2275,2.2309,2.2323,2.2346,2.2381,2.2429,2.2461,2.2506,2.2591,2.2601,2.263,2.2639,2.2647,2.2656,2.2705,2.2718,2.2572,2.2572,2.2572,0,0,2.2108,2.2133,2.2162,2.2222,2.2247,2.2296,2.2259,2.2312,2.2349,2.2331,2.2401,2.2419,2.2459,2.2538,2.2575,2.2557,2.2698,2.2655,2.2661,2.2666,2.2712,2.2726,2.2739,2.2576,2.2575,2.2575,0,0,2.2197,2.2219,2.2277,2.2303,2.2341,2.2352,2.2366,2.2402,2.2413,2.2483,2.2471,2.2516,2.2598,2.2627,2.2653,2.2754,2.2743,2.2768,2.2819,2.2866,2.2878,2.2888,2.2926,2.2939,2.2777,2.2777,2.2777,0,2.2235,2.2307,2.2309,2.2363,2.2391,2.2376,2.2437,2.2462,2.2514,2.2534,2.2512,2.2616,2.2642,2.2729,2.2753,2.2774,2.2792,2.2764,2.2875,2.2886,2.2896,2.2932,2.2946,2.278,2.278,2.2779,2.2779,0,2.2354,2.2404,2.2447,2.2496,2.2528,2.2585,2.2598,2.2631,2.2629,2.2642,2.2715,2.2745,2.2797,2.2817,2.2816,2.2905,2.2893,2.2874,2.2836,2.2912,2.2946,2.296,2.2784,2.2783,2.2782,2.2781,0,0,2.2465,2.2515,2.2531,2.2554,2.2596,2.2636,2.2693,2.2743,2.2772,2.2808,2.2858,2.2928,2.2911,2.294,2.2942,2.2984,2.3064,2.2959,2.2961,2.2979,2.3166,2.3181,2.3197,2.3057,2.3059,2.3062,2.3163,0,2.2558,2.2658,2.2662,2.2753,2.2801,2.2788,2.2839,2.2871,2.2885,2.2929,2.2945,2.2996,2.2968,2.2986,2.3026,2.3046,2.3102,2.3038,2.3105,2.3108,2.3097,2.3214,2.323,2.3325,2.3176,2.3179,2.318,0,2.268,2.2719,2.2815,2.2851,2.2872,2.2917,2.2964,2.3005,2.3042,2.305,2.3083,2.308,2.3141,2.31,2.3185,2.3142,2.317,2.3184,2.3188,2.3195,2.3149,2.3227,2.3355,2.337,2.3201,2.3199,2.3198,0,2.2754,2.2831,2.2899,2.2919,2.2962,2.2994,2.3014,2.3048,2.3079,2.3121,2.3141,2.3189,2.3216,2.3255,2.3266,2.3235,2.3352,2.3311,2.3362,2.3361,2.3387,2.3386,2.3523,2.3403,2.3403,2.3403,2.3402,0,2.2857,2.2917,2.2932,2.2974,2.3042,2.3046,2.3113,2.3131,2.3162,2.3209,2.3201,2.3246,2.3256,2.3303,2.3312,2.3383,2.3395,2.3404,2.3406,2.3406,2.3405,2.3425,2.3419,2.3406,2.3406,2.3405,2.3404,0,2.2951,2.2964,2.3037,2.3072,2.3083,2.3131,2.3162,2.3203,2.3217,2.3276,2.329,2.3312,2.3367,2.3382,2.3448,2.3454,2.3537,2.3532,2.3525,2.3525,2.3575,2.357,2.3731,2.3753,2.3617,2.3618,2.3619,0,2.3017,2.3063,2.3103,2.3133,2.3154,2.3203,2.3234,2.3241,2.3274,2.332,2.3357,2.341,2.3454,2.3543,2.3566,2.3617,2.3614,2.3667,2.3622,2.362,2.3617,2.3614,2.362,2.3676,2.3677,2.3678,2.3679,0,2.3133,2.3138,2.3182,2.3229,2.3266,2.3303,2.3339,2.3365,2.3378,2.3415,2.3471,2.3505,2.3572,2.3627,2.3678,2.3701,2.3693,2.3693,2.3708,2.3708,2.3703,2.3708,2.3549,2.369,2.3689,2.3688,2.3687,2.3687,2.3216,2.3257,2.3292,2.3342,2.337,2.3404,2.3445,2.3464,2.351,2.3564,2.3566,2.3627,2.3665,2.3734,2.3759,2.3808,2.3793,2.3813,2.3819,2.3824,2.3829,2.3694,2.3818,2.3817,2.3817,2.3817,2.3817,0,2.3333,2.3355,2.3401,2.3452,2.3492,2.348,2.352,2.3554,2.3608,2.3643,2.3686,2.3751,2.3804,2.3832,2.3885,2.3919,2.3918,2.3933,2.3932,2.3937,2.384,2.3822,2.3934,2.3934,2.3934,2.3934,2.3934,2.3934,2.3399,2.3468,2.3476,2.3559,2.3581,2.364,2.3664,2.3697,2.3725,2.3798,2.3842,2.3859,2.3892,2.3947,2.3996,2.4003,2.4024,2.4042,2.4047,2.3956,2.3944,2.3933,2.3916,2.4046,2.4046,2.4141,2.4142,2.4143]},{"header":{"parameterUnit":"m.s-1","parameterCategory":1,"la1":30.2991,"la2":30.254,"lo1":-89.0895,"lo2":-89.0444,"dy":0.0017,"dx":0.0017,"nx":28,"ny":28,"refTime":"2024-12-31T03:00:00:Z","depth":0,"parameterNumber":3,"parameterNumberName":"V-component_of_WINDS"},"data":[0,0,0,0,0,0,0,0,0,0,0,0,0,0,0,0,0,0,0,0,0,0,0,0,0,0,0,0,0,0,0,0,0,0,0,0,0,0,0,0,0,0,0,0,0,0,0,0,0,0,0,0,0,0,0,0,0,0,1.8451,1.8452,0,1.8507,1.8508,1.8509,1.8517,1.8516,1.8516,1.8516,1.8572,1.8574,1.8576,0,0,0,0,0,0,0,0,0,0,0,0,0,1.835,1.8352,1.8451,1.8452,1.8452,1.8507,1.8508,1.8509,1.8517,1.8516,1.8516,1.8515,1.8572,1.8574,1.8576,0,0,0,0,0,0,0,0,0,0,0,0,0,1.8399,1.8353,1.8451,1.8463,1.8465,1.8507,1.8508,1.8509,1.8517,1.8516,1.8516,1.8515,1.8571,1.8574,1.8577,1.861,0,0,1.8586,1.8587,0,0,0,0,0,0,0,0,1.8396,1.8403,1.8461,1.8462,1.8464,1.8504,1.8493,1.8543,1.8517,1.8497,1.8516,1.8515,1.855,1.8555,1.8567,1.8613,1.8615,1.8586,1.8588,1.8589,1.859,0,0,0,0,0,0,0,1.8393,1.84,1.8473,1.8461,1.8464,1.8466,1.8472,1.8503,1.8527,1.8499,1.85,1.8506,1.8551,1.8564,1.8568,1.8616,1.8586,1.8589,1.859,1.8592,1.8693,1.8694,0,0,0,0,0,0,1.8387,1.8397,1.8471,1.8475,1.8428,1.8468,1.8475,1.8492,1.8527,1.8532,1.8507,1.8507,1.8559,1.8565,1.857,1.8613,1.8589,1.8592,1.8594,1.8692,1.8693,1.8694,0,0,0,0,0,0,1.8385,1.8394,1.8469,1.8436,1.8446,1.8471,1.849,1.8494,1.8507,1.8533,1.8537,1.8516,1.8559,1.8566,1.86,1.8615,1.8593,1.8596,1.8691,1.8693,1.8694,1.8697,0,0,0,0,0,0,1.8382,1.8393,1.8406,1.8437,1.8448,1.8498,1.8491,1.8495,1.8512,1.8512,1.8542,1.8547,1.8559,1.8596,1.8603,1.8619,1.8598,1.869,1.8692,1.8693,1.8696,1.8699,1.8701,0,0,0,0,0,1.8379,1.8404,1.8407,1.8416,1.8465,1.8499,1.8506,1.8519,1.8513,1.8527,1.8543,1.8546,1.8612,1.8599,1.8608,1.8624,1.8689,1.8691,1.8693,1.8695,1.8698,1.8701,0,0,0,0,0,0,1.8374,1.8409,1.8412,1.8448,1.8471,1.8501,1.8518,1.8522,1.8547,1.8546,1.8562,1.8568,1.8602,1.8616,1.8602,1.8659,1.865,1.8654,1.8648,1.8652,1.8654,1.865,1.8601,0,0,0,0,0,1.8378,1.8403,1.8431,1.8461,1.8472,1.8493,1.8508,1.8517,1.8541,1.8551,1.857,1.8593,1.8619,1.8636,1.8661,1.8698,1.8705,1.8713,1.8716,1.8717,1.8721,1.8742,1.8747,1.8701,1.8701,1.8701,0,0,1.8385,1.8407,1.8421,1.8461,1.8479,1.8505,1.8501,1.8528,1.8548,1.8555,1.8589,1.8604,1.863,1.8666,1.8683,1.8679,1.8735,1.872,1.8721,1.8724,1.8745,1.8749,1.8753,1.8703,1.8702,1.8702,0,0,1.8411,1.843,1.8457,1.8476,1.8504,1.8518,1.8525,1.8554,1.8565,1.8599,1.8605,1.8628,1.8672,1.8692,1.8707,1.8742,1.8745,1.8749,1.8762,1.8783,1.8786,1.879,1.8803,1.8807,1.8752,1.8752,1.8752,0,1.8416,1.8456,1.847,1.8498,1.8515,1.8523,1.8551,1.8568,1.8603,1.8615,1.861,1.8667,1.8685,1.8726,1.8735,1.8747,1.8755,1.8746,1.8785,1.8788,1.8791,1.8804,1.8809,1.8753,1.8753,1.8753,1.8753,0,1.8461,1.8489,1.8507,1.8542,1.8561,1.8588,1.8607,1.8624,1.8632,1.8646,1.8681,1.8704,1.8734,1.8744,1.8751,1.8787,1.8784,1.8782,1.8773,1.8796,1.8808,1.8813,1.8753,1.8753,1.8753,1.8753,0,0,1.8487,1.8529,1.8536,1.8552,1.8584,1.8606,1.8633,1.8664,1.8679,1.8703,1.8727,1.8765,1.8764,1.8781,1.879,1.8808,1.8835,1.8804,1.8805,1.881,1.8877,1.8879,1.8884,1.8838,1.8839,1.8839,1.8875,0,1.8517,1.8568,1.8582,1.8625,1.8651,1.8659,1.8683,1.8706,1.872,1.8744,1.8759,1.8786,1.8782,1.8793,1.8811,1.8828,1.8849,1.8826,1.8861,1.8862,1.8855,1.8891,1.8893,1.8925,1.888,1.8881,1.8881,0,1.856,1.8586,1.8631,1.8661,1.8673,1.8694,1.8724,1.8746,1.8772,1.8781,1.8801,1.8809,1.8839,1.8828,1.887,1.8854,1.8869,1.888,1.8881,1.8886,1.8874,1.8897,1.8936,1.8941,1.8889,1.8888,1.8888,0,1.8575,1.8621,1.8654,1.8668,1.8703,1.8718,1.8734,1.8759,1.8777,1.8802,1.8814,1.8842,1.8858,1.888,1.8895,1.8886,1.8936,1.8927,1.8945,1.8945,1.8956,1.8955,1.8999,1.8964,1.8964,1.8964,1.8964,0,1.8609,1.8636,1.8662,1.8682,1.8714,1.873,1.8761,1.8776,1.8799,1.8823,1.8831,1.8853,1.8872,1.8897,1.8909,1.8942,1.8949,1.8957,1.896,1.8957,1.8956,1.8968,1.8966,1.8965,1.8965,1.8964,1.8964,0,1.8631,1.8649,1.8686,1.8717,1.8725,1.8747,1.8774,1.8794,1.8809,1.8839,1.8847,1.887,1.89,1.8917,1.8955,1.8963,1.9,1.9002,1.8992,1.8993,1.9011,1.901,1.9065,1.9073,1.9032,1.9032,1.9032,0,1.8651,1.8673,1.8706,1.8723,1.8739,1.8766,1.8785,1.8801,1.882,1.8851,1.8868,1.8899,1.8924,1.8971,1.8991,1.902,1.9023,1.9041,1.9028,1.9024,1.9025,1.9024,1.9027,1.9043,1.9043,1.9044,1.9044,0,1.8686,1.8694,1.8721,1.8751,1.8772,1.8796,1.882,1.8833,1.8854,1.8875,1.8906,1.8925,1.8964,1.8995,1.9025,1.9041,1.9047,1.9048,1.9054,1.9051,1.9045,1.905,1.8999,1.9047,1.9046,1.9046,1.9046,1.9046,1.8709,1.8729,1.8756,1.8785,1.8805,1.8828,1.8849,1.8866,1.8893,1.8926,1.8934,1.8967,1.8993,1.9035,1.9051,1.9078,1.9075,1.9083,1.9085,1.9087,1.9089,1.904,1.9083,1.9083,1.9083,1.9083,1.9083,0,1.8745,1.8763,1.879,1.8824,1.8847,1.885,1.8876,1.8896,1.8925,1.8949,1.8974,1.901,1.904,1.9062,1.9093,1.911,1.9113,1.9117,1.9117,1.9121,1.9089,1.9081,1.9114,1.9114,1.9114,1.9114,1.9114,1.9114,1.8767,1.8802,1.8813,1.8858,1.8875,1.8908,1.8923,1.8944,1.8964,1.9004,1.9029,1.9043,1.9067,1.91,1.9128,1.9134,1.9145,1.9149,1.9156,1.9126,1.9123,1.9119,1.9112,1.9151,1.9151,1.9185,1.9186,1.9186]}]]